When you browse on this site, cookies collect data to enhance your experience and personalize the content and advertising you see.
Visit our Privacy Policy to learn more. By continuing to use the site, you agree to this use of cookies and data.
  • In Sweden
  • List of Countries
  • For 7 days
  • Water Temperature
  • Weather Map
  • Weather Widgets
  • user-avatar
    Login

    Hourly Weather Trashigang

    Today, 12 November, Tuesday

    Time Temperature Precipitation Wind Pressure Humidity
    00:00 +14°C° 0 mm 1 mps 627 mmHg 89%
    01:00 +13°C° 0 mm 1 mps 627 mmHg 88%
    02:00 +13°C° 0 mm 1 mps 626 mmHg 87%
    03:00 +13°C° 0 mm 2 mps 626 mmHg 86%
    04:00 +12°C° 0 mm 1 mps 626 mmHg 85%
    05:00 +12°C° 0 mm 1 mps 626 mmHg 84%
    06:00 +12°C° 0 mm 2 mps 626 mmHg 81%
    07:00 +15°C° 0 mm 1 mps 628 mmHg 73%
    08:00 +19°C° 0 mm 1 mps 629 mmHg 66%
    09:00 +21°C° 0 mm 1 mps 630 mmHg 59%
    10:00 +22°C° 0 mm 1 mps 630 mmHg 58%
    11:00 +23°C° 0 mm 2 mps 630 mmHg 58%
    12:00 +23°C° 0 mm 2 mps 629 mmHg 58%
    13:00 +21°C° 0.1 mm 2 mps 629 mmHg 64%
    14:00 +21°C° 0.1 mm 2 mps 628 mmHg 70%
    15:00 +20°C° 0.1 mm 2 mps 628 mmHg 76%
    16:00 +19°C° 0 mm 1 mps 628 mmHg 83%
    17:00 +18°C° 0 mm 1 mps 628 mmHg 90%
    18:00 +14°C° 0 mm 0 mps 628 mmHg 97%
    19:00 +14°C° 0 mm 0 mps 628 mmHg 96%
    20:00 +15°C° 0 mm 1 mps 629 mmHg 95%
    21:00 +14°C° 0 mm 1 mps 629 mmHg 94%
    22:00 +14°C° 0 mm 1 mps 629 mmHg 93%
    23:00 +14°C° 0 mm 1 mps 629 mmHg 91%

    Tomorrow, 13 November, Wednesday

    Time Temperature Precipitation Wind Pressure Humidity
    00:00 +14°C° 0 mm 1 mps 629 mmHg 90%
    01:00 +14°C° 0 mm 1 mps 629 mmHg 89%
    02:00 +13°C° 0 mm 1 mps 628 mmHg 88%
    03:00 +13°C° 0 mm 1 mps 628 mmHg 87%
    04:00 +13°C° 0 mm 1 mps 628 mmHg 86%
    05:00 +13°C° 0 mm 2 mps 629 mmHg 85%
    06:00 +13°C° 0 mm 2 mps 629 mmHg 84%
    07:00 +15°C° 0 mm 1 mps 630 mmHg 75%
    08:00 +19°C° 0 mm 1 mps 631 mmHg 66%
    09:00 +20°C° 0 mm 0 mps 633 mmHg 58%
    10:00 +23°C° 0 mm 1 mps 632 mmHg 56%
    11:00 +24°C° 0 mm 2 mps 632 mmHg 55%
    12:00 +25°C° 0 mm 2 mps 632 mmHg 54%
    13:00 +24°C° 0.1 mm 2 mps 631 mmHg 60%
    14:00 +23°C° 0.1 mm 2 mps 631 mmHg 65%
    15:00 +23°C° 0.1 mm 2 mps 630 mmHg 71%
    16:00 +21°C° 0 mm 1 mps 630 mmHg 80%
    17:00 +19°C° 0 mm 1 mps 630 mmHg 88%
    18:00 +15°C° 0 mm 0 mps 630 mmHg 97%
    19:00 +15°C° 0 mm 0 mps 630 mmHg 96%
    20:00 +16°C° 0 mm 1 mps 631 mmHg 95%
    21:00 +16°C° 0 mm 1 mps 631 mmHg 94%
    22:00 +15°C° 0 mm 1 mps 631 mmHg 93%
    23:00 +15°C° 0 mm 1 mps 631 mmHg 92%

    Day after tomorrow, 14 November, Thursday

    Time Temperature Precipitation Wind Pressure Humidity
    00:00 +15°C° 0 mm 1 mps 631 mmHg 91%
    01:00 +15°C° 0 mm 1 mps 631 mmHg 90%
    02:00 +14°C° 0 mm 1 mps 630 mmHg 89%
    03:00 +14°C° 0 mm 1 mps 630 mmHg 87%
    04:00 +14°C° 0 mm 2 mps 630 mmHg 86%
    05:00 +14°C° 0 mm 2 mps 630 mmHg 85%
    06:00 +14°C° 0 mm 2 mps 630 mmHg 84%
    07:00 +16°C° 0 mm 1 mps 631 mmHg 76%
    08:00 +20°C° 0 mm 1 mps 632 mmHg 69%
    09:00 +20°C° 0 mm 0 mps 634 mmHg 61%
    10:00 +23°C° 0 mm 1 mps 633 mmHg 60%
    11:00 +24°C° 0 mm 1 mps 633 mmHg 59%
    12:00 +24°C° 0 mm 2 mps 632 mmHg 58%
    13:00 +24°C° 0.1 mm 2 mps 632 mmHg 61%
    14:00 +23°C° 0.1 mm 2 mps 631 mmHg 65%
    15:00 +23°C° 0.1 mm 2 mps 630 mmHg 68%
    16:00 +21°C° 0.1 mm 1 mps 630 mmHg 77%
    17:00 +19°C° 0.1 mm 1 mps 630 mmHg 86%
    18:00 +15°C° 0.1 mm 0 mps 629 mmHg 95%
    19:00 +15°C° 0 mm 0 mps 630 mmHg 94%
    20:00 +15°C° 0 mm 1 mps 630 mmHg 93%
    21:00 +15°C° 0 mm 1 mps 630 mmHg 92%
    22:00 +15°C° 0 mm 1 mps 630 mmHg 91%
    23:00 +15°C° 0 mm 1 mps 630 mmHg 89%

    15 November, Friday

    Time Temperature Precipitation Wind Pressure Humidity
    00:00 +14°C° 0 mm 2 mps 630 mmHg 88%
    01:00 +14°C° 0 mm 2 mps 629 mmHg 87%
    02:00 +14°C° 0 mm 2 mps 629 mmHg 85%
    03:00 +14°C° 0 mm 2 mps 628 mmHg 84%
    04:00 +13°C° 0 mm 2 mps 628 mmHg 84%
    05:00 +13°C° 0 mm 2 mps 628 mmHg 83%
    06:00 +13°C° 0 mm 2 mps 628 mmHg 83%
    07:00 +16°C° 0 mm 1 mps 630 mmHg 75%
    08:00 +19°C° 0 mm 1 mps 631 mmHg 67%
    09:00 +20°C° 0 mm 0 mps 632 mmHg 58%
    10:00 +23°C° 0 mm 1 mps 631 mmHg 56%
    11:00 +24°C° 0 mm 2 mps 631 mmHg 53%
    12:00 +25°C° 0 mm 2 mps 631 mmHg 50%
    13:00 +24°C° 0 mm 2 mps 630 mmHg 54%
    14:00 +24°C° 0 mm 2 mps 629 mmHg 58%
    15:00 +23°C° 0 mm 2 mps 628 mmHg 62%
    16:00 +21°C° 0 mm 1 mps 628 mmHg 73%
    17:00 +18°C° 0 mm 1 mps 628 mmHg 85%
    18:00 +14°C° 0 mm 0 mps 627 mmHg 96%
    19:00 +14°C° 0 mm 0 mps 628 mmHg 95%
    20:00 +14°C° 0 mm 1 mps 628 mmHg 94%
    21:00 +14°C° 0 mm 1 mps 628 mmHg 93%
    22:00 +14°C° 0 mm 1 mps 628 mmHg 92%
    23:00 +13°C° 0 mm 1 mps 628 mmHg 90%

    16 November, Saturday

    Time Temperature Precipitation Wind Pressure Humidity
    00:00 +13°C° 0 mm 1 mps 628 mmHg 89%
    01:00 +13°C° 0 mm 1 mps 627 mmHg 88%
    02:00 +13°C° 0 mm 1 mps 627 mmHg 86%
    03:00 +13°C° 0 mm 1 mps 627 mmHg 85%
    04:00 +12°C° 0 mm 1 mps 627 mmHg 84%
    05:00 +12°C° 0 mm 1 mps 627 mmHg 84%
    06:00 +12°C° 0 mm 1 mps 627 mmHg 83%
    07:00 +15°C° 0 mm 1 mps 628 mmHg 74%
    08:00 +19°C° 0 mm 1 mps 629 mmHg 66%
    09:00 +21°C° 0 mm 1 mps 630 mmHg 57%
    10:00 +22°C° 0 mm 1 mps 630 mmHg 57%
    11:00 +23°C° 0 mm 2 mps 630 mmHg 57%
    12:00 +23°C° 0 mm 2 mps 629 mmHg 57%
    13:00 +23°C° 0 mm 2 mps 628 mmHg 63%
    14:00 +21°C° 0 mm 2 mps 628 mmHg 70%
    15:00 +20°C° 0 mm 2 mps 627 mmHg 76%
    16:00 +19°C° 0.1 mm 1 mps 627 mmHg 83%
    17:00 +18°C° 0.1 mm 1 mps 627 mmHg 90%
    18:00 +14°C° 0.1 mm 0 mps 627 mmHg 98%
    19:00 +14°C° 0 mm 0 mps 627 mmHg 96%
    20:00 +14°C° 0 mm 0 mps 628 mmHg 95%
    21:00 +13°C° 0 mm 0 mps 628 mmHg 94%
    22:00 +13°C° 0 mm 0 mps 628 mmHg 93%
    23:00 +13°C° 0 mm 0 mps 628 mmHg 93%

    17 November, Sunday

    Time Temperature Precipitation Wind Pressure Humidity
    00:00 +14°C° 0 mm 1 mps 627 mmHg 92%
    01:00 +13°C° 0 mm 1 mps 627 mmHg 91%
    02:00 +13°C° 0 mm 1 mps 627 mmHg 90%
    03:00 +13°C° 0 mm 1 mps 627 mmHg 89%
    04:00 +13°C° 0 mm 1 mps 627 mmHg 88%
    05:00 +13°C° 0 mm 1 mps 627 mmHg 87%
    06:00 +12°C° 0 mm 1 mps 627 mmHg 87%
    07:00 +14°C° 0 mm 1 mps 628 mmHg 81%
    08:00 +16°C° 0 mm 1 mps 629 mmHg 76%
    09:00 +19°C° 0 mm 1 mps 629 mmHg 70%
    10:00 +20°C° 0.1 mm 1 mps 629 mmHg 68%
    11:00 +20°C° 0.1 mm 2 mps 629 mmHg 65%
    12:00 +21°C° 0.1 mm 2 mps 628 mmHg 63%
    13:00 +20°C° 0.1 mm 2 mps 628 mmHg 68%
    14:00 +20°C° 0.1 mm 2 mps 627 mmHg 72%
    15:00 +19°C° 0.1 mm 2 mps 627 mmHg 77%
    16:00 +17°C° 0.1 mm 2 mps 626 mmHg 84%
    17:00 +16°C° 0.1 mm 1 mps 626 mmHg 91%
    18:00 +13°C° 0.1 mm 0 mps 626 mmHg 98%
    19:00 +13°C° 0.1 mm 0 mps 627 mmHg 96%
    20:00 +13°C° 0.1 mm 0 mps 627 mmHg 95%
    21:00 +13°C° 0.1 mm 0 mps 628 mmHg 94%
    22:00 +13°C° 0.1 mm 0 mps 628 mmHg 93%
    23:00 +13°C° 0.1 mm 1 mps 627 mmHg 92%
    Show more